Погода в Самотоевке

Украина / Сумская область     50°48′42″N   35°08′32″E
темп.,
°C
ветер,
м/с
пор.,
м/с
влажн.,
%
обл.,
%
осадки,
мм/ч
давл.,
гПа
погр.,
м
23 апреля, пт
пт2300:00+9ю497885 0.0 1019187
03:00+7ю410839 0.0 1018202
06:00+8ю5128479 0.0 1018293
09:00+12ююз7116926 0.0 1017689
12:00+15ююз8106045 0.0 10161323
15:00+13юз81168100 1.6 10141227
18:00+7сз6891100 4.9 1015411
21:00+6сз4788100 7.5 1016784
24 апреля, сб
сб2400:00+6з3785100 0.1 1015414
03:00+4зюз49935 0.2 1015273
06:00+3з41089100 0.0 1015318
09:00+6з79704 0.0 10151035
12:00+8з710467 0.0 10161850
15:00+5з9108294 0.4 10161054
18:00+6зсз8115942 0.4 10161574
21:00+3зсз49730 0.4 1019331
25 апреля, вс
вс2500:00+2з410760 0.0 1019259
03:000зюз37830 0.0 1020157
06:000зюз39791 0.0 1020209
09:00+6зюз58570 0.0 1020789
12:00+9юз68415 0.0 10192191
15:00+10юз81147100 0.0 10172223
18:00+6зюз6108787 1.3 1017873
21:00+5зсз249089 1.6 1018110
26 апреля, пн
пн2600:00+4з2488100 0.0 1018132
03:00+3з239091 0.1 1018115
06:00+1зсз248897 0.0 101885
09:00+5зсз34665 0.0 1018611
12:00+8з4644100 0.1 10172282
15:00+9з6845100 0.1 10162037
18:00+7з685911 0.4 10151308
21:00+4зюз3877100 0.6 1017280
27 апреля, вт
вт2700:00+2зюз35825 0.0 1017106
03:00+2зюз338089 0.0 101645
06:00+2ю2383100 0.0 101645
09:00+6ююв3467100 0.0 1015427
12:00+5вюв2387100 1.2 1015411
15:00+4юз1395100 5.2 1014480
18:00+4ссз2289100 0.8 1014610
21:00+4с369298 0.9 1016530